📊 Raw Sensor Data
Showing records 41751 to 41775 of 84,988 total
| ID | Distance (ft) | Battery V | Battery A | Int Temp (°F) | Int Humid (%) | Ext Temp (°F) | Solar V | RSSI | SNR | Time Stamp |
|---|---|---|---|---|---|---|---|---|---|---|
| 43250 | 15.4 | 3.96 | -5 | 52 | 44 | 53 | 0.00 | -66 | 8 | 06/12/2025 01:15 AM |
| 43249 | 15.4 | 3.96 | -5 | 52 | 44 | 53 | 0.00 | -66 | 8 | 06/12/2025 01:00 AM |
| 43248 | 15.4 | 3.96 | -5 | 52 | 44 | 53 | 0.00 | -68 | 8 | 06/12/2025 12:30 AM |
| 43247 | 15.4 | 4.03 | -5 | 53 | 44 | 54 | 0.00 | -68 | 8 | 06/12/2025 12:15 AM |
| 43246 | 15.4 | 3.97 | -5 | 53 | 45 | 54 | 0.00 | -68 | 8 | 06/12/2025 12:00 AM |
| 43245 | 15.4 | 3.97 | -5 | 53 | 45 | 54 | 0.00 | -68 | 8 | 06/11/2025 11:45 PM |
| 43244 | 15.4 | 3.97 | -5 | 54 | 45 | 55 | 0.00 | -68 | 8 | 06/11/2025 11:30 PM |
| 43243 | 15.4 | 4.03 | -5 | 54 | 45 | 55 | 0.00 | -66 | 8 | 06/11/2025 11:15 PM |
| 43242 | 15.4 | 3.97 | -5 | 55 | 46 | 56 | 0.00 | -67 | 8 | 06/11/2025 11:00 PM |
| 43241 | 15.4 | 3.97 | -5 | 55 | 46 | 56 | 0.10 | -69 | 8 | 06/11/2025 10:45 PM |
| 43240 | 15.4 | 3.97 | -5 | 56 | 46 | 56 | 0.00 | -68 | 8 | 06/11/2025 10:30 PM |
| 43239 | 15.4 | 3.97 | -5 | 57 | 47 | 57 | 0.10 | -68 | 8 | 06/11/2025 10:15 PM |
| 43238 | 15.4 | 3.97 | -5 | 57 | 48 | 58 | 0.10 | -66 | 8 | 06/11/2025 10:00 PM |
| 43237 | 15.4 | 3.98 | -5 | 58 | 48 | 58 | 0.00 | -67 | 7 | 06/11/2025 09:45 PM |
| 43236 | 15.4 | 4.04 | -5 | 59 | 49 | 59 | 0.00 | -67 | 8 | 06/11/2025 09:30 PM |
| 43235 | 15.4 | 4.04 | -5 | 60 | 50 | 60 | 0.00 | -69 | 8 | 06/11/2025 09:15 PM |
| 43234 | 15.4 | 3.98 | -5 | 60 | 52 | 60 | 0.00 | -68 | 8 | 06/11/2025 09:00 PM |
| 43233 | 15.4 | 3.98 | -5 | 62 | 53 | 61 | 1.40 | -68 | 8 | 06/11/2025 08:45 PM |
| 43232 | 15.4 | 3.97 | -10 | 65 | 54 | 62 | 3.30 | -66 | 8 | 06/11/2025 08:30 PM |
| 43231 | 15.5 | 4.05 | 0 | 69 | 54 | 65 | 4.50 | -67 | 8 | 06/11/2025 08:15 PM |
| 43230 | 15.5 | 4.00 | 0 | 72 | 53 | 68 | 4.50 | -68 | 7 | 06/11/2025 08:00 PM |
| 43229 | 15.5 | 4.07 | 7 | 75 | 52 | 70 | 4.50 | -68 | 8 | 06/11/2025 07:45 PM |
| 43228 | 15.6 | 4.02 | 10 | 78 | 52 | 71 | 4.50 | -69 | 7 | 06/11/2025 07:30 PM |
| 43227 | 15.6 | 4.08 | -7 | 80 | 52 | 74 | 4.50 | -68 | 8 | 06/11/2025 07:15 PM |
| 43226 | 15.6 | 4.04 | 20 | 82 | 51 | 76 | 4.50 | -70 | 8 | 06/11/2025 07:00 PM |